Regional Weather Roundup
Issued by NWS

Home | Current Version | Previous Version | Graphics & Text | Print | Product List | Glossary On
Versions: 1 2 3 4 5 6 7 8 9 10 11 12 13 14 15 16 17 18 19 20 21 22 23 24 25 26 27 28 29 30 31 32 33 34 35 36 37 38 39 40 41 42 43 44 45 46 47 48 49 50
442
ASUS44 KJAN 011510
RWRMS

MISSISSIPPI HOURLY WEATHER ROUNDUP
NATIONAL WEATHER SERVICE JACKSON MS
1000 AM CDT MON SEP 01 2014

NOTE: "FAIR: INDICATES FEW OR NO CLOUDS BELOW 12,000 FEET WITH NO
SIGNIFICANT WEATHER AND/OR OBSTRUCTIONS TO VISIBILITY.

MSZ001>002-007>008-010>013-018>021-025>028-034>036-011600-
NORTHWEST MISSISSIPPI

CITY           SKY/WX    TMP DP  RH WIND       PRES   REMARKS
CLARKSDALE     CLOUDY    82  77  83 SW3       30.06S HX  91
CLEVELAND      PTSUNNY   82  77  85 S8G17     30.05S HX  91
GREENWOOD      SUNNY     84  75  74 S12       30.07S HX  92
GREENVILLE     PTSUNNY   84  77  79 S13       30.04S HX  94
GRENADA        FAIR      82  73  74 S5        30.08S
OLIVE BRANCH   PTSUNNY   81  81 100 S9        30.06F HX  91
OXFORD         FAIR      81  73  78 W10       30.09F
TUNICA         MOSUNNY   81  75  83 SW10      30.06S
$$

MSZ003>006-009-014>017-022>024-029>033-037>039-011600-
NORTHEAST MISSISSIPPI

CITY           SKY/WX    TMP DP  RH WIND       PRES   REMARKS
BELMONT        FAIR      81  74  79 SW7       30.11S
COLUMBUS AFB   SUNNY     84  72  66 W6        30.10R HX  90
CORINTH        FAIR      84  75  74 W8G16     30.07F HX  92
GOLDN TRIANGLE SUNNY     82  73  74 SW7       30.11R
STARKVILLE     FAIR      81  73  78 CALM      30.09S
TUPELO         SUNNY     84  73  69 W7        30.09S HX  90
$$

MSZ040-058-011600-
CENTRAL MISSISSIPPI

CITY           SKY/WX    TMP DP  RH WIND       PRES   REMARKS
JACKSON INTL   MOSUNNY   83  76  79 S9        30.09R HX  91
JACKSON HAWKNS MOSUNNY   84  75  74 S12       30.09R HX  92
MERIDIAN KEY   MOSUNNY   85  73  67 S9        30.10R HX  91
MERIDIAN NAS   MOSUNNY   85  72  65 S6        30.10R HX  91
RAYMOND        PTSUNNY   84  81  89 S6        30.07S HX  98
VICKSBURG      MOSUNNY   84  76  76 S14       30.05S HX  93
$$

MSZ059>079-011600-
SOUTH MISSISSIPPI

CITY           SKY/WX    TMP DP  RH WIND       PRES   REMARKS
BROOKHAVEN     PTSUNNY   82  79  89 SE10      30.10S HX  93
HATTIESBURG    MOSUNNY   84  76  76 VRB5      30.10F HX  93
MCCOMB         PTSUNNY   84  76  76 SE12      30.08S HX  93
NATCHEZ        PTSUNNY   84  77  79 S10       30.06S HX  94
PINE BELT      MOSUNNY   82  75  78 S9        30.12R
$$

MSZ080>082-011600-
COASTAL MISSISSIPPI

CITY           SKY/WX    TMP DP  RH WIND       PRES   REMARKS
BAY ST LOUIS   MOSUNNY  N/A N/A N/A SE12      30.08R
BILOXI         MOSUNNY   88  77  70 SE7       30.08R HX  99
PASCAGOULA     MOSUNNY   88  75  65 SE13      30.09R HX  97
GULFPORT       MOSUNNY   87  76  69 SE14      30.07R HX  97
$$



USA.gov is the U.S. government's official web portal to all federal, state and local government web resources and services.